Location: Ferma
(41.9500°N, 44.5167°E)
Time: 19:44:37
(UTC+00:00)

SL-16 R/B - Pass Details

Date: 24 October 2021
Orbit: 842 x 846 km, 71.0° (Epoch: 02 December)

Event Time Altitude Azimuth Distance (km) Brightness Sun altitude
Rises 14:25:44 0° 182° (S) 3,384 5.5 -4.2°
Reaches altitude 10° 14:28:16 10° 176° (S) 2,454 4.7 -4.7°
Maximum altitude 14:33:32 42° 106° (ESE) 1,184 2.6 -5.7°
Drops below altitude 10° 14:38:50 10° 37° (NE) 2,472 4.2 -6.6°
Sets 14:41:24 0° 31° (NNE) 3,412 5.0 -7.1°
